Weather History for Clinton-Sherman, OK

Change the Weather History Date:

Sunday, May 26, 2013

  Actual Average Record
Temperature  
Mean Temperature 80 °F -  
Max Temperature 93 °F 82 °F 97 °F (2006)
Min Temperature 66 °F 58 °F 52 °F (2005)
Cooling Degree Days 14    
Growing Degree Days 30 (Base 50)    
Moisture  
Dew Point 65 °F    
Average Humidity 69    
Maximum Humidity 94    
Minimum Humidity 34    
Precipitation  
Precipitation 0.00 in - - ()
Sea Level Pressure  
Sea Level Pressure 29.90 in    
Wind  
Wind Speed 20 mph (SSE)    
Max Wind Speed 29 mph    
Max Gust Speed 39 mph    
Visibility 10 miles    
Events      
Averages and records for this station are not official NWS values.
T = Trace of Precipitation, MM = Missing Value Source: NWS Daily Summary

Daily Weather History Graph

Daily Weather History Graph

Search for Another Location

Airport:

Trip Planner

Search our weather history database for the weather conditions in past years. The results will help you decide how hot, cold, wet, or windy it might be!

Date:

Astronomy

May. 26, 2013 Rise Set
Actual Time 6:25 AM CDT 8:42 PM CDT
Civil Twilight 5:56 AM CDT 9:11 PM CDT
Nautical Twilight 5:20 AM CDT 9:47 PM CDT
Astronomical Twilight 4:42 AM CDT 10:26 PM CDT
Moon 10:32 PM CDT (5/26) 7:55 AM CDT (5/26)
Length of Visible Light 15h 15m
Length of Day
14h 17m
Waning Gibbous, 96% of the Moon is Illuminated
May 26
Waning Gibbous
May 31
Last Quarter
Jun 8
New
Jun 16
First Quarter
Jun 23
Full

Hourly Weather History & Observations

Time (CDT) Temp. Heat Index Dew Point Humidity Pressure Visibility Wind Dir Wind Speed Gust Speed Precip Events Conditions
12:53 AM 70.0 °F - 66.0 °F 87% 29.94 in 10.0 mi SSE 21.9 mph 28.8 mph N/A   Clear
1:53 AM 69.1 °F - 66.0 °F 90% 29.92 in 10.0 mi SSE 18.4 mph - N/A   Clear
2:53 AM 69.1 °F - 66.0 °F 90% 29.89 in 10.0 mi South 19.6 mph - N/A   Clear
3:53 AM 68.0 °F - 64.9 °F 90% 29.89 in 10.0 mi South 21.9 mph - N/A   Clear
4:12 AM 68.0 °F - 64.4 °F 88% 29.97 in 10.0 mi South 18.4 mph - N/A   Partly Cloudy
4:53 AM 66.9 °F - 64.9 °F 93% 29.90 in 10.0 mi South 18.4 mph - N/A   Partly Cloudy
5:36 AM 66.2 °F - 64.4 °F 94% 29.98 in 10.0 mi SSE 13.8 mph - N/A   Partly Cloudy
5:53 AM 66.9 °F - 64.9 °F 93% 29.91 in 10.0 mi SSE 15.0 mph - N/A   Partly Cloudy
6:09 AM 66.2 °F - 64.4 °F 94% 29.98 in 10.0 mi SSE 13.8 mph - N/A   Mostly Cloudy
6:53 AM 68.0 °F - 66.0 °F 93% 29.94 in 10.0 mi South 15.0 mph - N/A   Overcast
7:53 AM 69.1 °F - 66.0 °F 90% 29.96 in 10.0 mi SSE 15.0 mph - N/A   Overcast
8:53 AM 72.0 °F - 66.9 °F 84% 29.96 in 10.0 mi South 20.7 mph 26.5 mph N/A   Overcast
9:22 AM 71.6 °F - 66.2 °F 83% 30.04 in 10.0 mi South 18.4 mph - N/A   Overcast
9:53 AM 75.0 °F - 66.0 °F 73% 29.97 in 10.0 mi South 18.4 mph 25.3 mph N/A   Overcast
10:21 AM 77.0 °F - 64.4 °F 65% 30.01 in 10.0 mi South 19.6 mph - N/A   Scattered Clouds
10:53 AM 79.0 °F - 64.9 °F 62% 29.95 in 10.0 mi South 18.4 mph - N/A   Partly Cloudy
11:53 AM 84.0 °F 85.4 °F 64.0 °F 51% 29.93 in 10.0 mi South 24.2 mph 29.9 mph N/A   Clear
12:53 PM 86.0 °F 86.8 °F 63.0 °F 46% 29.90 in 10.0 mi SSE 24.2 mph 33.4 mph N/A   Clear
1:53 PM 90.0 °F 90.3 °F 62.1 °F 39% 29.87 in 10.0 mi South 20.7 mph 35.7 mph N/A   Partly Cloudy
2:53 PM 91.0 °F 91.5 °F 62.1 °F 38% 29.84 in 10.0 mi South 25.3 mph 34.5 mph N/A   Clear
3:53 PM 91.9 °F 91.8 °F 61.0 °F 35% 29.82 in 10.0 mi SSE 24.2 mph 33.4 mph N/A   Clear
4:53 PM 93.0 °F 93.0 °F 61.0 °F 34% 29.81 in 10.0 mi South 26.5 mph 36.8 mph N/A   Clear
5:53 PM 91.9 °F 92.5 °F 62.1 °F 37% 29.80 in 10.0 mi South 28.8 mph 39.1 mph N/A   Clear
6:53 PM 88.0 °F 88.7 °F 63.0 °F 43% 29.79 in 10.0 mi SSE 23.0 mph 32.2 mph N/A   Clear
7:53 PM 84.0 °F 85.8 °F 64.9 °F 53% 29.80 in 10.0 mi SE 19.6 mph - N/A   Clear
8:53 PM 81.0 °F 83.0 °F 66.0 °F 60% 29.80 in 10.0 mi SE 20.7 mph - N/A   Clear
9:53 PM 79.0 °F - 66.9 °F 66% 29.81 in 10.0 mi SSE 24.2 mph 32.2 mph N/A   Clear
10:53 PM 78.1 °F - 66.9 °F 68% 29.82 in 10.0 mi SSE 24.2 mph 29.9 mph N/A   Clear
11:53 PM 77.0 °F - 66.0 °F 69% 29.81 in 10.0 mi SSE 25.3 mph 34.5 mph N/A   Clear